Location: Buena Vista Beach
(41.8098°N, 81.1279°W)
Time: 17:33:20
(UTC+00:00)

Cosmos 1689 Rocket - Pass Details

Date: 29 October 2020
Orbit: 360 x 375 km, 97.5° (Epoch: 28 November)

Event Time Altitude Azimuth Distance (km) Brightness Sun altitude
Rises 22:54:31 0° 27° (NNE) 2,204 5.5 -6.7°
Reaches altitude 10° 22:56:45 10° 44° (NE) 1,350 4.3 -7.1°
Maximum altitude 22:59:00 21° 96° (E) 894 3.3 -7.5°
Drops below altitude 10° 23:01:14 10° 148° (SSE) 1,340 4.6 -7.9°
Sets 23:03:27 0° 166° (SSE) 2,181 5.9 -8.3°
